[TLELIST] Archives

 

Current TLEs

April 19th 2008 PST

HST 1 20580U 90037B 08109.07745167 .00000348 00000-0 14070-4 0 1161 2 20580 028.4693 355.2679 0003699 109.1642 250.9347 15.00366206785948 ISS (ZARYA) 1 25544U 98067A 08110.15589395 .00017509 00000-0 10635-3 0 3337 2 25544 051.6409 320.6231 0001732 018.2917 081.0795 15.77615911539218 CXO 1 25867U 99040B 08109.37500000 .00000363 00000-0 10000-3 0 1889 2 25867 063.4860 081.9928 6726178 279.6333 355.2286 00.37806434 3407 ____________________________________________________________________ These 2-Line ...Continue Reading

Current TLEs

April 18th 2008 PST

HST 1 20580U 90037B 08109.07745167 .00000348 00000-0 14070-4 0 1161 2 20580 028.4693 355.2679 0003699 109.1642 250.9347 15.00366206785948 ISS (ZARYA) 1 25544U 98067A 08109.51752156 .00016194 00000-0 98795-4 0 3289 2 25544 051.6406 323.9173 0001630 021.4503 049.8973 15.77587129539118 CXO 1 25867U 99040B 08109.37500000 .00000363 00000-0 10000-3 0 1889 2 25867 063.4860 081.9928 6726178 279.6333 355.2286 00.37806434 3407 ____________________________________________________________________ These 2-Line ...Continue Reading

Current TLEs

April 17th 2008 PST

HST 1 20580U 90037B 08107.88009891 .00000335 00000-0 13108-4 0 1151 2 20580 028.4691 003.0765 0003628 096.1105 263.9895 15.00365614785765 ISS (ZARYA) 1 25544U 98067A 08108.19227049 .00015506 00000-0 94968-4 0 3228 2 25544 051.6409 330.7595 0001548 018.5289 081.3079 15.77539498538901 CXO 1 25867U 99040B 08106.70833333 .00000353 00000-0 10000-3 0 1879 2 25867 063.4732 082.0598 6722043 279.6743 352.1395 00.37806286 3392 ____________________________________________________________________ These 2-Line ...Continue Reading

Current TLEs

April 16th 2008 PST

HST 1 20580U 90037B 08105.95102865 +.00000343 +00000-0 +13735-4 0 01269 2 20580 028.4691 015.6573 0003544 075.1830 284.9149 15.00364973785470 ISS (ZARYA) 1 25544U 98067A 08107.41256944 .00016124 00000-0 98687-4 0 3182 2 25544 051.6413 334.7835 0001350 014.6768 334.1779 15.77517122538778 CXO 1 25867U 99040B 08106.70833333 .00000353 00000-0 10000-3 0 1879 2 25867 063.4732 082.0598 6722043 279.6743 352.1395 00.37806286 3392 ____________________________________________________________________ These 2-Line ...Continue Reading

Current TLEs

April 15th 2008 PST

HST 1 20580U 90037B 08106.21710721 .00000362 00000-0 15187-4 0 1146 2 20580 028.4692 013.9208 0003603 078.6643 281.4353 15.00365241785516 ISS (ZARYA) 1 25544U 98067A 08106.17372571 .00016655 00000-0 10198-3 0 3122 2 25544 051.6406 341.1783 0001213 010.6426 138.0821 15.77477689538580 CXO 1 25867U 99040B 08106.70833333 .00000353 00000-0 10000-3 0 1879 2 25867 063.4732 082.0598 6722043 279.6743 352.1395 00.37806286 3392 ____________________________________________________________________ These 2-Line ...Continue Reading

Current TLEs

April 14th 2008 PST

HST 1 20580U 90037B 08104.88671321 .00000369 00000-0 15751-4 0 1132 2 20580 028.4691 022.5975 0003567 063.8835 296.2120 15.00364750785318 ISS (ZARYA) 1 25544U 98067A 08105.14789509 .00021814 00000-0 13238-3 0 3065 2 25544 051.6407 346.4726 0000914 024.7724 054.5043 15.77459991538427 CXO 1 25867U 99040B 08104.08333333 .00000304 00000-0 10000-3 0 1868 2 25867 063.4691 082.1390 6715821 279.7173 354.7334 00.37801918 3388 ____________________________________________________________________ These 2-Line ...Continue Reading

Current TLEs

April 13th 2008 PST

HST 1 20580U 90037B 08103.22371940 .00000403 00000-0 18383-4 0 1125 2 20580 028.4689 033.4430 0003555 045.8559 314.2322 15.00364254785068 ISS (ZARYA) 1 25544U 98067A 08104.26471339 .00034955 00000-0 20972-3 0 3014 2 25544 051.6407 351.0349 0001410 354.8037 105.6990 15.77431200538282 CXO 1 25867U 99040B 08104.08333333 .00000304 00000-0 10000-3 0 1868 2 25867 063.4691 082.1390 6715821 279.7173 354.7334 00.37801918 3388 ____________________________________________________________________ These 2-Line ...Continue Reading

Current TLEs

April 12th 2008 PST

HST 1 20580U 90037B 08102.15940261 .00000432 00000-0 20641-4 0 1115 2 20580 028.4688 040.3838 0003553 034.1850 325.8966 15.00363923784905 ISS (ZARYA) 1 25544U 98067A 08103.31539473 .00025962 00000-0 15720-3 0 2936 2 25544 051.6417 355.9314 0000857 011.8100 094.2243 15.77392651538137 CXO 1 25867U 99040B 08104.08333333 .00000304 00000-0 10000-3 0 1868 2 25867 063.4691 082.1390 6715821 279.7173 354.7334 00.37801918 3388 ____________________________________________________________________ These 2-Line ...Continue Reading

Current TLEs

April 11th 2008 PST

HST 1 20580U 90037B 08102.15940261 .00000432 00000-0 20641-4 0 1115 2 20580 028.4688 040.3838 0003553 034.1850 325.8966 15.00363923784905 ISS (ZARYA) 1 25544U 98067A 08102.30078900 .00037914 00000-0 22779-3 0 2872 2 25544 051.6406 001.1710 0001072 354.5612 106.1309 15.77359471537970 CXO 1 25867U 99040B 08100.45902778 .00000344 00000-0 10000-3 0 1853 2 25867 063.4549 082.2247 6708242 279.8028 221.2669 00.37798349 3372 ____________________________________________________________________ These 2-Line ...Continue Reading

Current TLEs

April 10th 2008 PST

HST 1 20580U 90037B 08099.96424797 +.00000449 +00000-0 +21995-4 0 01144 2 20580 028.4684 054.6998 0003491 008.8048 351.2601 15.00362831784573 ISS (ZARYA) 1 25544U 98067A 08101.35146031 .00029843 00000-0 18076-3 0 2784 2 25544 051.6423 006.0627 0001049 355.9025 110.5605 15.77302003537828 CXO 1 25867U 99040B 08100.45902778 .00000344 00000-0 10000-3 0 1853 2 25867 063.4549 082.2247 6708242 279.8028 221.2669 00.37798349 3372 ____________________________________________________________________ These 2-Line ...Continue Reading
  • This mailing list is a public mailing list - anyone may join or leave, at any time.
  • This mailing list is announce-only.

International Space Station (ISS) / Hubble Space Telescope (HST) / Chandra X-Ray Observatory Orbital Data via EMAIL

Privacy Policy:

Private list